N4JAH Weather Reports


time (UTC)temp
C
wind
direction
speed
KPH
gust
KPH
rain 1hr
cm
rain 24hr
cm
rain mn
cm
humidity
%
barometer
mb
20260506033107 15 84 0.0 0.0 0.00 0.00 0.00 79 1013.5
20260506031503 15 84 0.0 0.0 0.00 0.00 0.00 77 1013.5
20260506030053 15 84 0.0 0.0 0.00 0.00 0.00 76 1013.5
20260506024557 16 84 0.0 0.0 0.00 0.00 0.00 74 1013.5
20260506023113 16 84 0.0 0.0 0.00 0.00 0.00 72 1013.7
20260506021602 17 84 0.0 0.0 0.00 0.00 0.00 70 1013.6
20260506020050 17 84 0.0 0.0 0.00 0.00 0.00 68 1013.5
20260506014555 18 84 0.0 0.0 0.00 0.00 0.00 66 1013.1
20260506013100 19 84 0.0 0.0 0.00 0.00 0.00 63 1013.0
20260506011501 20 84 0.0 0.0 0.00 0.00 0.00 62 1013.0
20260506010100 20 84 0.0 0.0 0.00 0.00 0.00 58 1013.1
20260506004625 21 84 0.0 0.0 0.00 0.00 0.00 57 1013.0
20260506003113 22 84 0.0 0.0 0.00 0.00 0.00 54 1013.1
20260506001502 22 198 0.0 0.0 0.00 0.00 0.00 52 1013.2
20260506000053 23 198 0.0 0.0 0.00 0.00 0.00 50 1012.9
20260505234637 23 198 0.0 0.0 0.00 0.00 0.00 47 1012.8
20260505233115 24 198 0.0 1.6 0.00 0.00 0.00 46 1012.8
20260505231510 25 198 0.0 4.8 0.00 0.00 0.00 44 1012.8
20260505230057 25 208 0.0 16.1 0.00 0.00 0.00 44 1012.7
20260505224559 26 216 0.0 6.4 0.00 0.00 0.00 45 1012.5
20260505223100 26 186 0.0 11.3 0.00 0.00 0.00 44 1012.7
20260505221604 26 215 1.6 6.4 0.00 0.00 0.00 43 1012.8
20260505220100 26 178 0.0 12.9 0.00 0.00 0.00 44 1012.7
20260505214602 26 228 1.6 9.7 0.00 0.00 0.00 44 1012.8
20260505213103 26 159 1.6 6.4 0.00 0.00 0.00 43 1012.7
20260505211604 26 37 0.0 8.0 0.00 0.00 0.00 45 1013.0
20260505210050 26 219 0.0 6.4 0.00 0.00 0.00 46 1012.9
20260505204600 26 259 0.0 6.4 0.00 0.00 0.00 49 1013.3
20260505203058 25 212 0.0 8.0 0.00 0.00 0.00 46 1013.3
20260505201605 25 205 0.0 8.0 0.00 0.00 0.00 47 1013.4
20260505200045 26 218 0.0 19.3 0.00 0.00 0.00 43 1013.6
20260505194550 26 203 1.6 17.7 0.00 0.00 0.00 41 1013.9
20260505193058 26 231 0.0 14.5 0.00 0.00 0.00 43 1014.0
20260505191602 27 198 0.0 9.7 0.00 0.00 0.00 43 1014.3
20260505190046 26 194 1.6 12.9 0.00 0.00 0.00 42 1014.4
20260505184547 26 105 0.0 9.7 0.00 0.00 0.00 43 1014.6
20260505183050 25 355 3.2 14.5 0.00 0.00 0.00 43 1015.0
20260505181558 26 194 1.6 12.9 0.00 0.00 0.00 43 1015.0
20260505180051 25 228 1.6 11.3 0.00 0.00 0.00 45 1015.1
20260505174606 25 225 3.2 19.3 0.00 0.00 0.00 47 1015.4
20260505173048 25 233 1.6 16.1 0.00 0.00 0.00 45 1015.5
20260505171552 25 229 1.6 8.0 0.00 0.00 0.00 47 1015.5
20260505170051 25 345 1.6 11.3 0.00 0.00 0.00 47 1015.8
20260505164543 24 225 0.0 11.3 0.00 0.00 0.00 50 1016.1
20260505163045 24 232 1.6 11.3 0.00 0.00 0.00 49 1016.2
20260505161556 24 171 1.6 11.3 0.00 0.00 0.00 52 1016.3
20260505153053 23 5 0.0 4.8 0.00 0.00 0.00 58 1016.7
20260505151549 22 266 0.0 4.8 0.00 0.00 0.00 61 1016.6
20260505124530 13 213 0.0 4.8 0.00 0.00 0.00 89 1016.0
20260505123052 12 225 0.0 0.0 0.00 0.00 0.00 94 1016.0
20260505121538 10 225 0.0 0.0 0.00 0.00 0.00 95 1016.1
20260505120029 8 225 0.0 0.0 0.00 0.00 0.00 94 1015.8
20260505114531 8 225 0.0 0.0 0.00 0.00 0.00 93 1015.7
20260505113038 7 225 0.0 0.0 0.00 0.00 0.00 92 1015.7
20260505111554 7 225 0.0 0.0 0.00 0.00 0.00 92 1015.4
20260505101544 7 225 0.0 0.0 0.00 0.00 0.00 91 1015.3
20260505100023 8 225 0.0 0.0 0.00 0.00 0.00 90 1015.0
20260505094526 8 225 0.0 0.0 0.00 0.00 0.00 90 1015.0
20260505093031 8 225 0.0 0.0 0.00 0.00 0.00 89 1015.2
20260505091537 8 225 0.0 0.0 0.00 0.00 0.00 89 1015.4
20260505090030 9 225 0.0 0.0 0.00 0.00 0.00 89 1015.2
20260505084530 9 225 0.0 3.2 0.00 0.00 0.00 90 1015.2
20260505083041 8 225 0.0 0.0 0.00 0.00 0.00 90 1015.2
20260505081546 8 225 0.0 0.0 0.00 0.00 0.00 90 1015.3
20260505080034 8 225 0.0 0.0 0.00 0.00 0.00 89 1015.2
20260505074529 8 225 0.0 0.0 0.00 0.00 0.00 89 1015.1
20260505073033 8 225 0.0 0.0 0.00 0.00 0.00 89 1015.0
20260505071540 9 225 0.0 0.0 0.00 0.00 0.00 89 1015.2
20260505070032 8 225 0.0 1.6 0.00 0.00 0.00 89 1015.1
20260505064550 8 225 0.0 0.0 0.00 0.00 0.00 89 1014.9
20260505063035 8 225 0.0 0.0 0.00 0.00 0.00 88 1015.0
20260505061541 9 225 0.0 0.0 0.00 0.00 0.00 87 1015.1
20260505060018 9 225 0.0 0.0 0.00 0.00 0.00 87 1014.9
20260505054518 9 225 0.0 0.0 0.00 0.00 0.00 86 1015.0
20260505053023 10 225 0.0 0.0 0.00 0.00 0.00 86 1015.2
20260505051529 10 225 0.0 0.0 0.00 0.00 0.00 85 1015.2
20260505041532 11 225 0.0 0.0 0.00 0.00 0.00 82 1015.3
20260505040016 11 225 0.0 0.0 0.00 0.00 0.00 81 1015.2
20260505034520 11 225 0.0 0.0 0.00 0.00 0.00 80 1015.3